| time (UTC) | temp C | wind direction | speed KPH | gust KPH | rain 1hr cm | rain 24hr cm | rain mn cm | humidity % | barometer mb |
| 20260504081020 | 17 | 174 | 3.2 | 6.4 | 0.00 | 0.10 | 0.10 | 93 | 1012.1 |
| 20260504050021 | 16 | 146 | 3.2 | 4.8 | 0.00 | 0.10 | 0.10 | 93 | 1011.5 |
| 20260504045021 | 15 | 306 | 4.8 | 14.5 | 0.03 | 0.10 | 0.10 | 93 | 1011.4 |
| 20260504044021 | 15 | 359 | 3.2 | 11.3 | 0.03 | 0.13 | 0.10 | 93 | 1011.4 |
| 20260504043021 | 15 | 348 | 8.0 | 14.5 | 0.05 | 0.13 | 0.10 | 93 | 1011.3 |
| 20260504042021 | 16 | 360 | 4.8 | 12.9 | 0.10 | 0.13 | 0.10 | 94 | 1011.5 |
| 20260504041040 | 16 | 339 | 1.6 | 12.9 | 0.10 | 0.13 | 0.10 | 94 | 1011.5 |
| 20260504040020 | 16 | 336 | 4.8 | 9.7 | 0.10 | 0.13 | 0.10 | 94 | 1011.7 |
| 20260504035041 | 16 | 312 | 1.6 | 4.8 | 0.08 | 0.10 | 0.08 | 94 | 1012.0 |
| 20260504034021 | 16 | 326 | 1.6 | 6.4 | 0.05 | 0.10 | 0.05 | 93 | 1012.1 |
| 20260504033021 | 16 | 45 | 1.6 | 4.8 | 0.05 | 0.08 | 0.05 | 93 | 1012.3 |
| 20260504032021 | 16 | 287 | 1.6 | 6.4 | 0.00 | 0.05 | 0.00 | 92 | 1012.2 |
| 20260504031020 | 16 | 230 | 1.6 | 4.8 | 0.00 | 0.05 | 0.00 | 91 | 1012.4 |
| 20260504030021 | 16 | 322 | 4.8 | 11.3 | 0.00 | 0.05 | 0.00 | 91 | 1012.3 |
| 20260504025021 | 16 | 182 | 3.2 | 6.4 | 0.00 | 0.05 | 0.00 | 90 | 1012.4 |
| 20260504024021 | 16 | 317 | 1.6 | 6.4 | 0.00 | 0.05 | 0.00 | 89 | 1012.5 |
| 20260504023021 | 16 | 341 | 3.2 | 6.4 | 0.00 | 0.05 | 0.00 | 89 | 1012.6 |
| 20260504022021 | 16 | 239 | 1.6 | 8.0 | 0.00 | 0.05 | 0.00 | 88 | 1012.5 |
| 20260504021021 | 16 | 347 | 4.8 | 12.9 | 0.00 | 0.05 | 0.00 | 88 | 1012.5 |
| 20260504020020 | 16 | 343 | 3.2 | 8.0 | 0.00 | 0.05 | 0.00 | 88 | 1012.5 |
| 20260504015020 | 16 | 125 | 1.6 | 6.4 | 0.00 | 0.05 | 0.00 | 88 | 1012.6 |
| 20260504014020 | 16 | 169 | 1.6 | 6.4 | 0.00 | 0.05 | 0.00 | 86 | 1012.7 |
| 20260504013020 | 16 | 24 | 1.6 | 6.4 | 0.00 | 0.05 | 0.00 | 86 | 1012.7 |
| 20260504012040 | 16 | 338 | 1.6 | 4.8 | 0.00 | 0.05 | 0.00 | 86 | 1012.6 |
| 20260504011020 | 16 | 16 | 3.2 | 9.7 | 0.00 | 0.05 | 0.00 | 88 | 1012.6 |
| 20260504010021 | 16 | 349 | 3.2 | 6.4 | 0.00 | 0.05 | 0.00 | 89 | 1012.5 |
| 20260504005021 | 16 | 164 | 0.0 | 3.2 | 0.00 | 0.05 | 0.00 | 89 | 1012.4 |
| 20260504004021 | 16 | 0.0 | 1.6 | 0.00 | 0.05 | 0.00 | 89 | 1012.4 | |
| 20260504003041 | 16 | 163 | 1.6 | 1.6 | 0.00 | 0.05 | 0.00 | 88 | 1012.6 |
| 20260504002041 | 16 | 325 | 3.2 | 3.2 | 0.00 | 0.05 | 0.00 | 89 | 1012.5 |
| 20260504001040 | 16 | 0.0 | 0.0 | 0.00 | 0.05 | 0.00 | 89 | 1012.7 | |
| 20260504000021 | 16 | 53 | 0.0 | 3.2 | 0.00 | 0.05 | 0.00 | 89 | 1012.8 |
| 20260503235022 | 16 | 137 | 0.0 | 3.2 | 0.00 | 0.05 | 0.00 | 87 | 1012.8 |
| 20260503234021 | 16 | 0.0 | 1.6 | 0.00 | 0.05 | 0.00 | 89 | 1013.0 | |
| 20260503233021 | 16 | 0.0 | 0.0 | 0.00 | 0.05 | 0.00 | 89 | 1013.0 | |
| 20260503232021 | 16 | 0.0 | 1.6 | 0.00 | 0.05 | 0.00 | 89 | 1013.2 | |
| 20260503231041 | 16 | 0.0 | 1.6 | 0.00 | 0.05 | 0.00 | 89 | 1013.2 | |
| 20260503230021 | 16 | 0.0 | 0.0 | 0.00 | 0.05 | 0.00 | 89 | 1013.4 | |
| 20260503225020 | 16 | 0.0 | 0.0 | 0.00 | 0.05 | 0.00 | 89 | 1013.4 | |
| 20260503224020 | 16 | 0.0 | 0.0 | 0.00 | 0.05 | 0.00 | 89 | 1013.5 | |
| 20260503223020 | 16 | 0.0 | 1.6 | 0.00 | 0.05 | 0.00 | 89 | 1013.5 | |
| 20260503222041 | 16 | 0.0 | 1.6 | 0.00 | 0.05 | 0.00 | 89 | 1013.5 | |
| 20260503221040 | 16 | 0.0 | 1.6 | 0.00 | 0.05 | 0.00 | 89 | 1013.5 | |
| 20260503220021 | 15 | 98 | 0.0 | 1.6 | 0.00 | 0.05 | 0.00 | 89 | 1013.6 |
| 20260503215041 | 16 | 241 | 0.0 | 3.2 | 0.00 | 0.05 | 0.05 | 89 | 1013.7 |
| 20260503214021 | 15 | 0.0 | 0.0 | 0.00 | 0.05 | 0.05 | 89 | 1013.6 | |
| 20260503213021 | 15 | 293 | 0.0 | 1.6 | 0.00 | 0.05 | 0.05 | 91 | 1013.8 |
| 20260503212041 | 15 | 233 | 0.0 | 3.2 | 0.00 | 0.05 | 0.05 | 90 | 1013.6 |
| 20260503211100 | 15 | 132 | 3.2 | 4.8 | 0.00 | 0.05 | 0.05 | 90 | 1013.6 |
| 20260503210020 | 15 | 354 | 0.0 | 4.8 | 0.00 | 0.05 | 0.05 | 89 | 1013.6 |
| 20260503205021 | 15 | 284 | 3.2 | 6.4 | 0.00 | 0.05 | 0.05 | 89 | 1013.5 |
| 20260503204100 | 16 | 313 | 0.0 | 1.6 | 0.00 | 0.05 | 0.05 | 88 | 1013.5 |
| 20260503203021 | 16 | 137 | 0.0 | 3.2 | 0.00 | 0.05 | 0.05 | 88 | 1013.1 |
| 20260503202020 | 16 | 347 | 0.0 | 6.4 | 0.00 | 0.05 | 0.05 | 88 | 1012.9 |
| 20260503201101 | 16 | 324 | 1.6 | 8.0 | 0.00 | 0.05 | 0.05 | 88 | 1012.9 |
| 20260503200021 | 16 | 268 | 3.2 | 9.7 | 0.00 | 0.05 | 0.05 | 87 | 1012.7 |
| 20260503195021 | 16 | 344 | 3.2 | 19.3 | 0.00 | 0.05 | 0.05 | 87 | 1012.6 |
| 20260503194020 | 16 | 346 | 3.2 | 9.7 | 0.00 | 0.05 | 0.05 | 87 | 1012.4 |
| 20260503193020 | 16 | 325 | 1.6 | 6.4 | 0.00 | 0.05 | 0.05 | 87 | 1012.2 |
| 20260503192020 | 16 | 144 | 0.0 | 3.2 | 0.00 | 0.05 | 0.05 | 87 | 1012.2 |
| 20260503191021 | 16 | 19 | 0.0 | 3.2 | 0.00 | 0.05 | 0.05 | 87 | 1012.2 |
| 20260503190021 | 16 | 186 | 1.6 | 3.2 | 0.00 | 0.05 | 0.05 | 86 | 1012.2 |
| 20260503185041 | 16 | 344 | 1.6 | 6.4 | 0.00 | 0.05 | 0.05 | 87 | 1012.2 |
| 20260503184021 | 16 | 8 | 1.6 | 9.7 | 0.00 | 0.05 | 0.05 | 86 | 1012.2 |
| 20260503183021 | 16 | 130 | 0.0 | 1.6 | 0.00 | 0.05 | 0.05 | 86 | 1012.1 |
| 20260503182021 | 16 | 283 | 1.6 | 3.2 | 0.00 | 0.08 | 0.05 | 86 | 1012.0 |
| 20260503181021 | 17 | 209 | 1.6 | 3.2 | 0.00 | 0.13 | 0.05 | 85 | 1011.9 |
| 20260503180021 | 17 | 236 | 1.6 | 4.8 | 0.00 | 0.13 | 0.05 | 85 | 1011.9 |
| 20260503175020 | 17 | 241 | 3.2 | 4.8 | 0.00 | 0.13 | 0.05 | 84 | 1011.9 |
| 20260503174021 | 17 | 277 | 3.2 | 6.4 | 0.00 | 0.13 | 0.05 | 83 | 1011.9 |
| 20260503173020 | 17 | 245 | 3.2 | 6.4 | 0.00 | 0.13 | 0.05 | 83 | 1011.8 |
| 20260503172101 | 17 | 245 | 3.2 | 6.4 | 0.00 | 0.13 | 0.05 | 82 | 1011.8 |
| 20260503171021 | 17 | 251 | 3.2 | 6.4 | 0.00 | 0.13 | 0.05 | 81 | 1011.9 |
| 20260503131021 | 21 | 263 | 4.8 | 11.3 | 0.00 | 0.13 | 0.05 | 69 | 1012.9 |